Location: Góry Miechowskie
(50.3599°N, 20.1803°E)
Time: 15:46:41
(UTC+00:00)

S-56A Canister/Altair - All Passes

Search period start: 13 September 2024 00:00
Search period end: 23 September 2024 00:00
Orbit: 637 x 2487 km, 38.9° (Epoch: 12 September)

Date Brightness Start Highest point End Pass type
(mag) Time Alt. Az. Time Alt. Az. Time Alt. Az.
13 Sep - 01:27:45 10° SW 01:30:08 11° SW 01:32:37 10° SW night (unlit)
13 Sep - 16:39:12 10° S 16:42:20 14° SE 16:46:01 10° ESE daylight
13 Sep - 18:38:40 10° SW 18:44:39 34° SSE 18:53:06 10° ESE visible
13 Sep - 20:40:46 10° WSW 20:48:10 40° S 20:58:46 10° ESE visible
13 Sep - 22:44:14 10° WSW 22:52:14 29° SSW 23:02:38 10° SSE visible
14 Sep - 00:51:53 10° WSW 00:56:00 12° SW 01:00:27 10° SSW night (unlit)
14 Sep - 16:07:17 10° SSE 16:08:44 11° SE 16:10:16 10° SE daylight
14 Sep - 18:05:23 10° SW 18:10:50 30° SSE 18:18:23 10° ESE visible
14 Sep - 20:07:13 10° WSW 20:14:07 39° S 20:24:03 10° ESE visible
14 Sep - 22:10:25 10° WSW 22:18:02 30° SSW 22:28:13 10° SSE visible
15 Sep - 00:16:55 10° WSW 00:21:50 14° SW 00:27:21 10° SSW night (unlit)
15 Sep - 17:32:08 10° SSW 17:37:04 27° SSE 17:43:41 10° ESE visible
15 Sep - 19:33:43 10° WSW 19:40:07 38° S 19:49:21 10° ESE visible
15 Sep - 21:36:40 10° WSW 21:43:54 30° SSW 21:53:44 10° SE visible
15 Sep - 23:42:22 10° WSW 23:47:42 15° SW 23:53:51 10° S night (unlit)
16 Sep - 16:58:57 10° SSW 17:03:20 23° SSE 17:09:01 10° ESE daylight
16 Sep - 19:00:15 10° WSW 19:06:11 36° S 19:14:40 10° ESE visible
16 Sep - 21:02:59 10° WSW 21:09:48 31° SSW 21:19:12 10° SE visible
16 Sep - 23:08:02 10° WSW 23:13:34 16° SSW 23:20:07 10° S night (unlit)
17 Sep - 16:25:52 10° SSW 16:29:40 19° SSE 16:34:21 10° ESE daylight
17 Sep - 18:26:49 10° SW 18:32:18 34° S 18:40:02 10° ESE visible
17 Sep - 20:29:21 10° WSW 20:35:45 31° SSW 20:44:40 10° SE visible
17 Sep - 22:33:53 10° WSW 22:39:28 17° SSW 22:46:12 10° S visible
18 Sep - 15:52:54 10° S 15:56:01 16° SSE 15:59:40 10° ESE daylight
18 Sep - 17:53:26 10° SW 17:58:29 31° S 18:05:27 10° ESE visible
18 Sep - 19:55:45 10° WSW 20:01:46 31° S 20:10:08 10° SE visible
18 Sep - 21:59:54 10° WSW 22:05:23 18° SSW 22:12:09 10° S visible
19 Sep - 15:20:09 10° S 15:22:23 13° SSE 15:24:50 10° ESE daylight
19 Sep - 17:20:03 10° SW 17:24:42 29° SSE 17:30:56 10° ESE visible
19 Sep - 19:22:13 10° WSW 19:27:49 30° S 19:35:36 10° SE visible
19 Sep - 21:26:00 10° WSW 21:31:20 19° SSW 21:38:01 10° SSE visible
20 Sep - 14:48:43 10° SE 14:48:46 10° SE 14:48:49 10° SE daylight
20 Sep - 16:46:42 10° SW 16:50:57 26° SSE 16:56:27 10° ESE daylight
20 Sep - 18:48:41 10° WSW 18:53:56 30° S 19:01:06 10° SE visible
20 Sep - 20:52:11 10° WSW 20:57:19 19° SSW 21:03:50 10° SSE visible
21 Sep - 16:13:23 10° SW 16:17:15 23° SSE 16:22:03 10° ESE daylight
21 Sep - 18:15:12 10° WSW 18:20:04 29° S 18:26:38 10° SE visible
21 Sep - 20:18:27 10° WSW 20:23:21 20° SSW 20:29:36 10° SSE visible
22 Sep - 15:40:05 10° SSW 15:43:34 20° SSE 15:47:41 10° ESE daylight
22 Sep - 17:41:43 10° WSW 17:46:15 28° S 17:52:14 10° SE visible
22 Sep - 19:44:46 10° WSW 19:49:25 20° SSW 19:55:21 10° SSE visible
